Time,TemperatureF,DewpointF,PressureIn,WindDirection,WindDirectionDegrees,WindSpeedMPH,WindSpeedGustMPH,Humidity,HourlyPrecipIn,Conditions,Clouds,dailyrainin,SoftwareType,DateUTC
2013-10-17 00:01:00,60.7,48.9,29.96,NNW,338,0.0,1.8,65,0.00,,,0.00,WUHU216HW,2013-10-17 05:01:00,
2013-10-17 00:06:00,60.5,48.7,29.96,WNW,293,0.0,0.7,65,0.00,,,0.00,WUHU216HW,2013-10-17 05:06:00,
2013-10-17 00:11:00,60.5,48.7,29.96,NNW,338,0.2,0.2,65,0.00,,,0.00,WUHU216HW,2013-10-17 05:11:00,
2013-10-17 00:16:00,60.3,48.5,29.96,NNW,338,0.0,0.4,65,0.00,,,0.00,WUHU216HW,2013-10-17 05:16:00,
2013-10-17 00:21:00,60.1,48.3,29.97,North,0,0.0,0.4,65,0.00,,,0.00,WUHU216HW,2013-10-17 05:21:00,
2013-10-17 00:26:00,59.9,48.2,29.96,NE,45,1.3,1.3,65,0.00,,,0.00,WUHU216HW,2013-10-17 05:26:00,
2013-10-17 00:31:00,59.8,48.0,29.96,NE,45,2.2,2.2,65,0.00,,,0.00,WUHU216HW,2013-10-17 05:31:00,
2013-10-17 00:36:00,59.6,47.8,29.96,NE,45,0.4,2.2,65,0.00,,,0.00,WUHU216HW,2013-10-17 05:36:00,
2013-10-17 00:41:00,59.4,47.6,29.96,North,0,0.4,1.8,65,0.00,,,0.00,WUHU216HW,2013-10-17 05:41:00,
2013-10-17 00:46:00,59.4,47.6,29.96,NW,315,0.0,2.5,65,0.00,,,0.00,WUHU216HW,2013-10-17 05:46:00,
2013-10-17 00:51:00,59.2,47.4,29.96,WNW,293,0.4,2.5,65,0.00,,,0.00,WUHU216HW,2013-10-17 05:51:00,
2013-10-17 00:56:00,59.0,47.3,29.96,WNW,293,0.4,0.4,65,0.00,,,0.00,WUHU216HW,2013-10-17 05:56:00,
2013-10-17 01:01:00,59.0,47.7,29.96,NW,315,0.0,0.4,66,0.00,,,0.00,WUHU216HW,2013-10-17 06:01:00,
2013-10-17 01:06:00,58.9,47.5,29.96,NW,315,0.0,0.2,66,0.00,,,0.00,WUHU216HW,2013-10-17 06:06:00,
2013-10-17 01:11:00,58.7,47.4,29.96,NW,315,0.0,0.0,66,0.00,,,0.00,WUHU216HW,2013-10-17 06:11:00,
2013-10-17 01:16:00,58.3,47.0,29.96,NNW,338,0.7,0.7,66,0.00,,,0.00,WUHU216HW,2013-10-17 06:16:00,
2013-10-17 01:21:00,58.3,47.3,29.96,NNW,338,0.0,0.7,67,0.00,,,0.00,WUHU216HW,2013-10-17 06:21:00,
2013-10-17 01:26:00,58.1,47.3,29.96,NNE,23,0.0,0.7,67,0.00,,,0.00,WUHU216HW,2013-10-17 06:26:00,
2013-10-17 01:31:00,58.0,47.1,29.96,North,0,0.4,0.7,67,0.00,,,0.00,WUHU216HW,2013-10-17 06:31:00,
2013-10-17 01:36:00,58.0,47.1,29.96,North,0,0.2,0.4,67,0.00,,,0.00,WUHU216HW,2013-10-17 06:36:00,
2013-10-17 01:41:00,57.8,47.3,29.96,North,0,0.0,0.2,68,0.00,,,0.00,WUHU216HW,2013-10-17 06:41:00,
2013-10-17 01:46:00,57.6,47.1,29.96,North,0,0.2,0.4,68,0.00,,,0.00,WUHU216HW,2013-10-17 06:46:00,
2013-10-17 01:51:00,57.4,46.9,29.96,North,0,0.0,0.4,68,0.00,,,0.00,WUHU216HW,2013-10-17 06:51:00,
2013-10-17 01:56:00,57.2,47.2,29.96,North,0,0.0,0.2,69,0.00,,,0.00,WUHU216HW,2013-10-17 06:56:00,
2013-10-17 02:01:00,57.2,47.2,29.96,North,0,0.0,0.2,69,0.00,,,0.00,WUHU216HW,2013-10-17 07:01:00,
2013-10-17 02:06:00,56.9,46.8,29.96,North,0,0.0,0.2,69,0.00,,,0.00,WUHU216HW,2013-10-17 07:06:00,
2013-10-17 02:11:00,56.7,46.6,29.96,North,0,0.0,0.0,69,0.00,,,0.00,WUHU216HW,2013-10-17 07:11:00,
2013-10-17 02:16:00,56.5,46.4,29.96,NNW,338,0.0,0.2,69,0.00,,,0.00,WUHU216HW,2013-10-17 07:16:00,
2013-10-17 02:21:00,56.5,46.9,29.96,NNW,338,0.0,0.2,70,0.00,,,0.00,WUHU216HW,2013-10-17 07:21:00,
2013-10-17 02:26:00,56.3,46.7,29.96,NNW,338,0.0,0.2,70,0.00,,,0.00,WUHU216HW,2013-10-17 07:26:00,
2013-10-17 02:31:00,56.2,46.5,29.96,NNW,338,0.0,0.0,70,0.00,,,0.00,WUHU216HW,2013-10-17 07:31:00,
2013-10-17 02:36:00,56.0,46.4,29.96,NNW,338,0.0,0.0,70,0.00,,,0.00,WUHU216HW,2013-10-17 07:36:00,
2013-10-17 02:41:00,55.8,46.5,29.96,NNW,338,0.0,0.0,71,0.00,,,0.00,WUHU216HW,2013-10-17 07:41:00,
2013-10-17 02:46:00,55.8,46.5,29.96,NNW,338,0.0,0.0,71,0.00,,,0.00,WUHU216HW,2013-10-17 07:46:00,
2013-10-17 02:51:00,55.6,46.7,29.96,NNW,338,0.0,0.0,72,0.00,,,0.00,WUHU216HW,2013-10-17 07:51:00,
2013-10-17 02:56:00,55.4,46.6,29.96,NNW,338,0.0,0.0,72,0.00,,,0.00,WUHU216HW,2013-10-17 07:56:00,
2013-10-17 03:01:00,55.1,46.3,29.95,NNW,338,0.0,0.0,72,0.00,,,0.00,WUHU216HW,2013-10-17 08:01:00,
2013-10-17 03:06:00,55.1,46.6,29.96,NNW,338,0.0,0.0,73,0.00,,,0.00,WUHU216HW,2013-10-17 08:06:00,
2013-10-17 03:08:00,54.9,46.5,29.96,NNW,338,0.0,0.0,73,0.00,,,0.00,WUHU216HW,2013-10-17 08:08:00,
2013-10-17 03:13:00,54.7,46.3,29.95,NNW,338,0.0,0.0,73,0.00,,,0.00,WUHU216HW,2013-10-17 08:13:00,
2013-10-17 03:18:00,54.5,46.1,29.95,NNW,338,0.0,0.0,73,0.00,,,0.00,WUHU216HW,2013-10-17 08:18:00,
2013-10-17 03:23:00,54.4,45.9,29.95,NNW,338,0.0,0.0,73,0.00,,,0.00,WUHU216HW,2013-10-17 08:23:00,
2013-10-17 03:28:00,54.4,46.3,29.95,NNW,338,0.0,0.0,74,0.00,,,0.00,WUHU216HW,2013-10-17 08:28:00,
2013-10-17 03:33:00,54.2,46.1,29.95,NNW,338,0.0,0.0,74,0.00,,,0.00,WUHU216HW,2013-10-17 08:33:00,
2013-10-17 03:38:00,54.0,45.9,29.95,NNW,338,0.0,0.0,74,0.00,,,0.00,WUHU216HW,2013-10-17 08:38:00,
2013-10-17 03:43:00,53.8,45.7,29.95,NNW,338,0.0,0.0,74,0.00,,,0.00,WUHU216HW,2013-10-17 08:43:00,
2013-10-17 03:48:00,53.8,46.1,29.95,NNW,338,0.0,0.0,75,0.00,,,0.00,WUHU216HW,2013-10-17 08:48:00,
2013-10-17 03:53:00,53.6,45.9,29.95,NNW,338,0.0,0.0,75,0.00,,,0.00,WUHU216HW,2013-10-17 08:53:00,
2013-10-17 03:58:00,53.5,45.7,29.95,NNW,338,0.0,0.0,75,0.00,,,0.00,WUHU216HW,2013-10-17 08:58:00,
2013-10-17 04:03:00,53.5,45.7,29.95,NNW,338,0.0,0.0,75,0.00,,,0.00,WUHU216HW,2013-10-17 09:03:00,
2013-10-17 04:08:00,53.5,45.7,29.95,NNW,338,0.0,0.0,75,0.00,,,0.00,WUHU216HW,2013-10-17 09:08:00,
2013-10-17 04:13:00,53.3,45.5,29.95,NNW,338,0.0,0.0,75,0.00,,,0.00,WUHU216HW,2013-10-17 09:13:00,
2013-10-17 04:18:00,53.3,45.5,29.95,NNW,338,0.0,0.0,75,0.00,,,0.00,WUHU216HW,2013-10-17 09:18:00,
2013-10-17 04:23:00,53.3,45.2,29.95,NNW,338,0.0,0.0,74,0.00,,,0.00,WUHU216HW,2013-10-17 09:23:00,
2013-10-17 04:28:00,53.1,45.4,29.95,NNW,338,0.0,0.0,75,0.00,,,0.00,WUHU216HW,2013-10-17 09:28:00,
2013-10-17 04:33:00,53.1,45.4,29.95,NNW,338,0.0,0.0,75,0.00,,,0.00,WUHU216HW,2013-10-17 09:33:00,
2013-10-17 04:38:00,53.1,45.4,29.95,NNW,338,0.0,0.0,75,0.00,,,0.00,WUHU216HW,2013-10-17 09:38:00,
2013-10-17 04:43:00,52.9,45.2,29.95,NNW,338,0.0,0.0,75,0.00,,,0.00,WUHU216HW,2013-10-17 09:43:00,
2013-10-17 04:48:00,52.9,45.2,29.95,NNW,338,0.0,0.0,75,0.00,,,0.00,WUHU216HW,2013-10-17 09:48:00,
2013-10-17 04:53:00,52.6,44.9,29.95,NNW,338,0.0,0.0,75,0.00,,,0.00,WUHU216HW,2013-10-17 09:53:00,
2013-10-17 04:58:00,52.2,44.6,29.95,NNW,338,0.0,0.0,75,0.00,,,0.00,WUHU216HW,2013-10-17 09:58:00,
2013-10-17 05:03:00,52.2,44.6,29.96,NNW,338,0.0,0.0,75,0.00,,,0.00,WUHU216HW,2013-10-17 10:03:00,
2013-10-17 05:08:00,52.0,44.7,29.95,NNW,338,0.0,0.0,76,0.00,,,0.00,WUHU216HW,2013-10-17 10:08:00,
2013-10-17 05:13:00,52.0,44.7,29.96,NNW,338,0.0,0.0,76,0.00,,,0.00,WUHU216HW,2013-10-17 10:13:00,
2013-10-17 05:18:00,52.0,44.7,29.96,NNW,338,0.0,0.0,76,0.00,,,0.00,WUHU216HW,2013-10-17 10:18:00,
2013-10-17 05:23:00,51.8,44.6,29.96,NNW,338,0.0,0.0,76,0.00,,,0.00,WUHU216HW,2013-10-17 10:23:00,
2013-10-17 05:28:00,51.8,44.6,29.95,NNW,338,0.0,0.0,76,0.00,,,0.00,WUHU216HW,2013-10-17 10:28:00,
2013-10-17 05:33:00,51.7,44.7,29.96,NNW,338,0.0,0.0,77,0.00,,,0.00,WUHU216HW,2013-10-17 10:33:00,
2013-10-17 05:38:00,51.5,44.6,29.96,NNW,338,0.0,0.0,77,0.00,,,0.00,WUHU216HW,2013-10-17 10:38:00,
2013-10-17 05:43:00,51.5,44.6,29.96,NNW,338,0.0,0.0,77,0.00,,,0.00,WUHU216HW,2013-10-17 10:43:00,
2013-10-17 05:48:00,51.5,44.6,29.96,NNW,338,0.0,0.0,77,0.00,,,0.00,WUHU216HW,2013-10-17 10:48:00,
2013-10-17 05:53:00,51.5,44.6,29.96,NNW,338,0.0,0.0,77,0.00,,,0.00,WUHU216HW,2013-10-17 10:53:00,
2013-10-17 05:58:00,51.3,44.4,29.96,NNW,338,0.0,0.0,77,0.00,,,0.00,WUHU216HW,2013-10-17 10:58:00,
2013-10-17 06:03:00,51.1,44.5,29.96,NNW,338,0.0,0.0,78,0.00,,,0.00,WUHU216HW,2013-10-17 11:03:00,
2013-10-17 06:08:00,51.1,44.5,29.96,NNW,338,0.0,0.0,78,0.00,,,0.00,WUHU216HW,2013-10-17 11:08:00,
2013-10-17 06:13:00,50.9,44.3,29.96,NNW,338,0.0,0.0,78,0.00,,,0.00,WUHU216HW,2013-10-17 11:13:00,
2013-10-17 06:18:00,50.9,44.3,29.96,NNW,338,0.0,0.0,78,0.00,,,0.00,WUHU216HW,2013-10-17 11:18:00,
2013-10-17 06:23:00,50.8,44.1,29.96,NNW,338,0.0,0.0,78,0.00,,,0.00,WUHU216HW,2013-10-17 11:23:00,
2013-10-17 06:28:00,50.8,44.1,29.96,NNW,338,0.0,0.0,78,0.00,,,0.00,WUHU216HW,2013-10-17 11:28:00,
2013-10-17 06:33:00,50.8,44.1,29.96,NNW,338,0.0,0.0,78,0.00,,,0.00,WUHU216HW,2013-10-17 11:33:00,
2013-10-17 06:38:00,50.8,44.1,29.97,NNW,338,0.0,0.0,78,0.00,,,0.00,WUHU216HW,2013-10-17 11:38:00,
2013-10-17 06:43:00,50.6,43.9,29.96,NNW,338,0.0,0.0,78,0.00,,,0.00,WUHU216HW,2013-10-17 11:43:00,
2013-10-17 06:48:00,50.6,43.9,29.96,NNW,338,0.0,0.0,78,0.00,,,0.00,WUHU216HW,2013-10-17 11:48:00,
2013-10-17 06:53:00,50.6,43.9,29.97,NNW,338,0.0,0.0,78,0.00,,,0.00,WUHU216HW,2013-10-17 11:53:00,
2013-10-17 06:58:00,50.4,43.7,29.97,NNW,338,0.0,0.0,78,0.00,,,0.00,WUHU216HW,2013-10-17 11:58:00,
2013-10-17 07:03:00,50.4,43.7,29.96,NNW,338,0.0,0.0,78,0.00,,,0.00,WUHU216HW,2013-10-17 12:03:00,
2013-10-17 07:08:00,50.2,43.6,29.97,NNW,338,0.0,0.0,78,0.00,,,0.00,WUHU216HW,2013-10-17 12:08:00,
2013-10-17 07:13:00,50.0,43.7,29.97,NNW,338,0.0,0.0,79,0.00,,,0.00,WUHU216HW,2013-10-17 12:13:00,
2013-10-17 07:18:00,49.9,43.6,29.97,NNW,338,0.0,0.0,79,0.00,,,0.00,WUHU216HW,2013-10-17 12:18:00,
2013-10-17 07:23:00,49.9,43.6,29.97,NNW,338,0.0,0.0,79,0.00,,,0.00,WUHU216HW,2013-10-17 12:23:00,
2013-10-17 07:28:00,49.9,43.6,29.97,NNW,338,0.0,0.0,79,0.00,,,0.00,WUHU216HW,2013-10-17 12:28:00,
2013-10-17 07:33:00,49.9,43.6,29.97,NNW,338,0.0,0.0,79,0.00,,,0.00,WUHU216HW,2013-10-17 12:33:00,
2013-10-17 07:38:00,50.0,43.7,29.97,NNW,338,0.0,0.0,79,0.00,,,0.00,WUHU216HW,2013-10-17 12:38:00,
2013-10-17 07:43:00,50.0,43.7,29.98,NNW,338,0.0,0.0,79,0.00,,,0.00,WUHU216HW,2013-10-17 12:43:00,
2013-10-17 07:48:00,50.2,43.9,29.98,NNW,338,0.0,0.0,79,0.00,,,0.00,WUHU216HW,2013-10-17 12:48:00,
2013-10-17 07:53:00,50.2,43.9,29.98,NNW,338,0.2,0.2,79,0.00,,,0.00,WUHU216HW,2013-10-17 12:53:00,
2013-10-17 07:58:00,50.2,43.9,29.98,NNW,338,0.0,0.2,79,0.00,,,0.00,WUHU216HW,2013-10-17 12:58:00,
2013-10-17 08:03:00,50.4,44.1,29.98,NW,315,0.0,0.2,79,0.00,,,0.00,WUHU216HW,2013-10-17 13:03:00,
2013-10-17 08:08:00,50.6,44.6,29.98,NW,315,0.0,0.0,80,0.00,,,0.00,WUHU216HW,2013-10-17 13:08:00,
2013-10-17 08:13:00,50.6,44.6,29.99,WNW,293,0.0,0.4,80,0.00,,,0.00,WUHU216HW,2013-10-17 13:13:00,
2013-10-17 08:18:00,50.8,44.8,29.99,WNW,293,0.0,0.4,80,0.00,,,0.00,WUHU216HW,2013-10-17 13:18:00,
2013-10-17 08:23:00,50.8,44.8,29.99,NW,315,0.0,0.4,80,0.00,,,0.00,WUHU216HW,2013-10-17 13:23:00,
2013-10-17 08:28:00,50.9,45.0,29.99,NW,315,0.0,0.4,80,0.00,,,0.00,WUHU216HW,2013-10-17 13:28:00,
2013-10-17 08:33:00,51.1,44.8,29.99,North,0,0.2,0.4,79,0.00,,,0.00,WUHU216HW,2013-10-17 13:33:00,
2013-10-17 08:38:00,51.1,44.8,29.99,NNE,23,0.0,1.1,79,0.00,,,0.00,WUHU216HW,2013-10-17 13:38:00,
2013-10-17 08:43:00,51.5,45.5,29.99,NNW,338,0.0,1.1,80,0.00,,,0.00,WUHU216HW,2013-10-17 13:43:00,
2013-10-17 08:48:00,51.5,45.5,29.99,NNW,338,0.0,0.4,80,0.00,,,0.00,WUHU216HW,2013-10-17 13:48:00,
2013-10-17 08:53:00,51.8,45.5,29.99,North,0,0.4,0.4,79,0.00,,,0.00,WUHU216HW,2013-10-17 13:53:00,
2013-10-17 08:58:00,52.2,46.3,30.00,NW,315,0.0,0.7,80,0.00,,,0.00,WUHU216HW,2013-10-17 13:58:00,
2013-10-17 09:03:00,53.3,47.3,30.00,NW,315,0.9,0.9,80,0.00,,,0.00,WUHU216HW,2013-10-17 14:03:00,
2013-10-17 09:08:00,53.8,47.2,30.00,NNW,338,0.4,1.1,78,0.00,,,0.00,WUHU216HW,2013-10-17 14:08:00,
2013-10-17 09:13:00,53.8,46.8,30.00,ENE,68,0.4,1.1,77,0.00,,,0.00,WUHU216HW,2013-10-17 14:13:00,
2013-10-17 09:18:00,53.8,46.8,30.00,NE,45,1.8,1.8,77,0.00,,,0.00,WUHU216HW,2013-10-17 14:18:00,
2013-10-17 09:23:00,53.8,46.8,30.01,NNE,23,1.1,1.8,77,0.00,,,0.00,WUHU216HW,2013-10-17 14:23:00,
2013-10-17 09:28:00,53.8,46.5,30.01,NE,45,0.9,1.6,76,0.00,,,0.00,WUHU216HW,2013-10-17 14:28:00,
2013-10-17 09:33:00,54.0,46.6,30.01,North,0,1.3,1.6,76,0.00,,,0.00,WUHU216HW,2013-10-17 14:33:00,
2013-10-17 09:38:00,54.0,46.6,30.01,WNW,293,0.4,1.8,76,0.00,,,0.00,WUHU216HW,2013-10-17 14:38:00,
2013-10-17 09:43:00,54.2,46.8,30.01,NNW,338,1.1,1.8,76,0.00,,,0.00,WUHU216HW,2013-10-17 14:43:00,
2013-10-17 09:48:00,54.4,47.0,30.01,South,180,0.4,1.1,76,0.00,,,0.00,WUHU216HW,2013-10-17 14:48:00,
2013-10-17 09:53:00,54.4,46.6,30.02,WSW,248,0.4,1.1,75,0.00,,,0.00,WUHU216HW,2013-10-17 14:53:00,
2013-10-17 09:58:00,54.5,47.1,30.02,NE,45,0.4,1.1,76,0.00,,,0.00,WUHU216HW,2013-10-17 14:58:00,
2013-10-17 10:03:00,54.9,47.4,30.02,SW,225,0.7,1.1,76,0.00,,,0.00,WUHU216HW,2013-10-17 15:03:00,
2013-10-17 10:08:00,55.1,47.6,30.02,WSW,248,0.4,1.8,76,0.00,,,0.00,WUHU216HW,2013-10-17 15:08:00,
2013-10-17 10:13:00,55.1,47.6,30.02,SSW,203,2.5,2.5,76,0.00,,,0.00,WUHU216HW,2013-10-17 15:13:00,
2013-10-17 10:18:00,55.3,47.4,30.02,SE,135,2.2,2.7,75,0.00,,,0.00,WUHU216HW,2013-10-17 15:18:00,
2013-10-17 10:23:00,55.4,47.6,30.02,NNE,23,0.0,2.9,75,0.00,,,0.00,WUHU216HW,2013-10-17 15:23:00,
2013-10-17 10:28:00,55.8,48.0,30.02,NNW,338,0.4,2.9,75,0.00,,,0.00,WUHU216HW,2013-10-17 15:28:00,
2013-10-17 10:33:00,56.0,48.2,30.02,North,0,0.0,1.3,75,0.00,,,0.00,WUHU216HW,2013-10-17 15:33:00,
2013-10-17 10:38:00,56.2,48.0,30.02,SE,135,0.2,1.3,74,0.00,,,0.00,WUHU216HW,2013-10-17 15:38:00,
2013-10-17 10:43:00,56.3,48.2,30.02,SE,135,0.2,0.9,74,0.00,,,0.00,WUHU216HW,2013-10-17 15:43:00,
2013-10-17 10:48:00,56.5,48.2,30.02,NW,315,1.1,1.1,74,0.00,,,0.00,WUHU216HW,2013-10-17 15:48:00,
2013-10-17 10:53:00,57.1,48.4,30.01,WSW,248,2.0,2.9,73,0.00,,,0.00,WUHU216HW,2013-10-17 15:53:00,
2013-10-17 10:58:00,57.4,48.8,30.02,SW,225,0.4,2.9,73,0.00,,,0.00,WUHU216HW,2013-10-17 15:58:00,
2013-10-17 11:03:00,58.0,49.3,30.01,SSE,158,4.0,4.0,73,0.00,,,0.00,WUHU216HW,2013-10-17 16:03:00,
2013-10-17 11:08:00,58.5,49.5,30.01,South,180,0.9,4.0,72,0.00,,,0.00,WUHU216HW,2013-10-17 16:08:00,
2013-10-17 11:13:00,58.9,49.5,30.01,SSW,203,1.8,2.7,71,0.00,,,0.00,WUHU216HW,2013-10-17 16:13:00,
2013-10-17 11:18:00,59.4,50.0,30.01,NNE,23,0.4,1.8,71,0.00,,,0.00,WUHU216HW,2013-10-17 16:18:00,
2013-10-17 11:23:00,59.8,50.0,30.01,SSW,203,1.8,1.8,70,0.00,,,0.00,WUHU216HW,2013-10-17 16:23:00,
2013-10-17 11:28:00,60.1,50.4,30.01,SSW,203,2.7,2.7,70,0.00,,,0.00,WUHU216HW,2013-10-17 16:28:00,
2013-10-17 11:33:00,60.7,50.5,30.01,SSE,158,0.7,2.7,69,0.00,,,0.00,WUHU216HW,2013-10-17 16:33:00,
2013-10-17 11:38:00,61.0,50.9,30.01,SSW,203,0.9,2.2,69,0.00,,,0.00,WUHU216HW,2013-10-17 16:38:00,
2013-10-17 11:43:00,61.4,51.2,30.01,SSW,203,0.9,1.3,69,0.00,,,0.00,WUHU216HW,2013-10-17 16:43:00,
2013-10-17 11:48:00,61.7,51.5,30.00,WNW,293,0.4,2.9,69,0.00,,,0.00,WUHU216HW,2013-10-17 16:48:00,
2013-10-17 11:53:00,61.9,51.3,30.00,South,180,0.4,2.9,68,0.00,,,0.00,WUHU216HW,2013-10-17 16:53:00,
2013-10-17 11:58:00,62.5,51.8,30.00,SSE,158,0.4,1.3,68,0.00,,,0.00,WUHU216HW,2013-10-17 16:58:00,
2013-10-17 12:03:00,63.0,51.8,30.00,NE,45,0.4,1.8,67,0.00,,,0.00,WUHU216HW,2013-10-17 17:03:00,
2013-10-17 12:08:00,63.2,52.0,30.00,SSW,203,2.0,2.0,67,0.00,,,0.00,WUHU216HW,2013-10-17 17:08:00,
2013-10-17 12:13:00,64.1,52.5,29.99,West,270,0.4,2.0,66,0.00,,,0.00,WUHU216HW,2013-10-17 17:13:00,
2013-10-17 12:18:00,64.6,52.6,29.99,North,0,0.2,2.5,65,0.00,,,0.00,WUHU216HW,2013-10-17 17:18:00,
2013-10-17 12:23:00,65.0,52.5,29.99,East,90,0.7,4.3,64,0.00,,,0.00,WUHU216HW,2013-10-17 17:23:00,
2013-10-17 12:28:00,65.2,52.2,29.99,SW,225,0.4,4.3,63,0.00,,,0.00,WUHU216HW,2013-10-17 17:28:00,
2013-10-17 12:33:00,65.3,52.4,29.98,South,180,1.8,1.8,63,0.00,,,0.00,WUHU216HW,2013-10-17 17:33:00,
2013-10-17 12:38:00,65.7,52.3,29.98,WSW,248,0.4,1.8,62,0.00,,,0.00,WUHU216HW,2013-10-17 17:38:00,
2013-10-17 12:43:00,65.9,52.1,29.98,SW,225,0.4,2.5,61,0.00,,,0.00,WUHU216HW,2013-10-17 17:43:00,
2013-10-17 12:48:00,66.2,52.5,29.97,SSW,203,1.6,2.5,61,0.00,,,0.00,WUHU216HW,2013-10-17 17:48:00,
2013-10-17 12:53:00,66.8,52.5,29.97,SSW,203,1.8,2.9,60,0.00,,,0.00,WUHU216HW,2013-10-17 17:53:00,
2013-10-17 12:58:00,67.0,52.2,29.97,NW,315,1.1,2.9,59,0.00,,,0.00,WUHU216HW,2013-10-17 17:58:00,
2013-10-17 13:03:00,67.0,52.2,29.96,NNE,23,1.1,2.0,59,0.00,,,0.00,WUHU216HW,2013-10-17 18:03:00,
2013-10-17 13:08:00,67.1,51.8,29.96,South,180,0.7,1.8,58,0.00,,,0.00,WUHU216HW,2013-10-17 18:08:00,
2013-10-17 13:13:00,67.3,52.0,29.96,WSW,248,3.6,3.6,58,0.00,,,0.00,WUHU216HW,2013-10-17 18:13:00,
2013-10-17 13:18:00,67.5,51.7,29.96,SE,135,0.9,3.6,57,0.00,,,0.00,WUHU216HW,2013-10-17 18:18:00,
2013-10-17 13:23:00,67.9,52.0,29.96,SSE,158,1.1,2.0,57,0.00,,,0.00,WUHU216HW,2013-10-17 18:23:00,
2013-10-17 13:28:00,68.0,51.7,29.96,SW,225,2.2,3.6,56,0.00,,,0.00,WUHU216HW,2013-10-17 18:28:00,
2013-10-17 13:33:00,68.4,52.0,29.95,SSE,158,2.9,3.6,56,0.00,,,0.00,WUHU216HW,2013-10-17 18:33:00,
2013-10-17 13:38:00,68.6,51.2,29.95,South,180,1.6,4.0,54,0.00,,,0.00,WUHU216HW,2013-10-17 18:38:00,
2013-10-17 13:43:00,68.8,51.9,29.94,SW,225,2.2,4.0,55,0.00,,,0.00,WUHU216HW,2013-10-17 18:43:00,
2013-10-17 13:48:00,69.1,51.8,29.94,South,180,1.6,4.0,54,0.00,,,0.00,WUHU216HW,2013-10-17 18:48:00,
2013-10-17 13:53:00,69.1,51.2,29.94,SW,225,2.9,4.0,53,0.00,,,0.00,WUHU216HW,2013-10-17 18:53:00,
2013-10-17 13:58:00,69.3,51.4,29.94,SW,225,0.7,3.1,53,0.00,,,0.00,WUHU216HW,2013-10-17 18:58:00,
2013-10-17 14:03:00,69.5,51.6,29.94,NW,315,0.4,3.1,53,0.00,,,0.00,WUHU216HW,2013-10-17 19:03:00,
2013-10-17 14:08:00,69.5,51.1,29.94,South,180,2.7,3.4,52,0.00,,,0.00,WUHU216HW,2013-10-17 19:08:00,
2013-10-17 14:13:00,69.5,50.6,29.94,South,180,1.3,5.4,51,0.00,,,0.00,WUHU216HW,2013-10-17 19:13:00,
2013-10-17 14:18:00,69.7,50.8,29.93,East,90,0.7,5.4,51,0.00,,,0.00,WUHU216HW,2013-10-17 19:18:00,
2013-10-17 14:23:00,70.0,50.6,29.92,East,90,0.4,4.0,50,0.00,,,0.00,WUHU216HW,2013-10-17 19:23:00,
2013-10-17 14:28:00,70.0,50.6,29.92,SW,225,1.1,4.0,50,0.00,,,0.00,WUHU216HW,2013-10-17 19:28:00,
2013-10-17 14:31:00,70.0,50.0,29.92,SSW,203,2.0,2.0,49,0.00,,,0.00,WUHU216HW,2013-10-17 19:31:00,
2013-10-17 14:36:00,70.2,50.1,29.91,SSE,158,0.7,2.0,49,0.00,,,0.00,WUHU216HW,2013-10-17 19:36:00,
2013-10-17 14:41:00,70.0,50.0,29.91,South,180,0.4,1.8,49,0.00,,,0.00,WUHU216HW,2013-10-17 19:41:00,
2013-10-17 14:46:00,70.2,50.1,29.91,South,180,1.1,1.8,49,0.00,,,0.00,WUHU216HW,2013-10-17 19:46:00,
2013-10-17 14:51:00,70.4,50.3,29.91,SSW,203,1.6,6.0,49,0.00,,,0.00,WUHU216HW,2013-10-17 19:51:00,
2013-10-17 14:56:00,70.6,49.9,29.91,South,180,1.8,6.0,48,0.00,,,0.00,WUHU216HW,2013-10-17 19:56:00,
2013-10-17 15:01:00,70.9,50.2,29.91,SSW,203,1.8,2.2,48,0.00,,,0.00,WUHU216HW,2013-10-17 20:01:00,
2013-10-17 15:06:00,70.9,49.6,29.91,SSW,203,2.5,2.5,47,0.00,,,0.00,WUHU216HW,2013-10-17 20:06:00,
2013-10-17 15:11:00,70.9,49.6,29.91,ESE,113,0.0,2.5,47,0.00,,,0.00,WUHU216HW,2013-10-17 20:11:00,
2013-10-17 15:16:00,70.9,49.6,29.90,West,270,1.1,1.1,47,0.00,,,0.00,WUHU216HW,2013-10-17 20:16:00,
2013-10-17 15:21:00,70.9,49.6,29.90,SE,135,0.2,1.6,47,0.00,,,0.00,WUHU216HW,2013-10-17 20:21:00,
2013-10-17 15:26:00,70.9,49.6,29.90,SSW,203,1.1,1.8,47,0.00,,,0.00,WUHU216HW,2013-10-17 20:26:00,
2013-10-17 15:31:00,71.3,50.0,29.90,WSW,248,2.5,3.1,47,0.00,,,0.00,WUHU216HW,2013-10-17 20:31:00,
2013-10-17 15:36:00,71.3,49.3,29.90,South,180,1.8,3.4,46,0.00,,,0.00,WUHU216HW,2013-10-17 20:36:00,
2013-10-17 15:41:00,71.3,49.3,29.90,SSW,203,4.0,4.0,46,0.00,,,0.00,WUHU216HW,2013-10-17 20:41:00,
2013-10-17 15:46:00,71.3,49.3,29.89,SSE,158,0.2,5.1,46,0.00,,,0.00,WUHU216HW,2013-10-17 20:46:00,
2013-10-17 15:51:00,71.3,50.0,29.89,SSW,203,0.2,5.1,47,0.00,,,0.00,WUHU216HW,2013-10-17 20:51:00,
2013-10-17 15:56:00,71.5,50.0,29.89,SW,225,4.0,4.0,47,0.00,,,0.00,WUHU216HW,2013-10-17 20:56:00,
2013-10-17 16:01:00,71.6,50.2,29.89,SSW,203,0.4,4.0,47,0.00,,,0.00,WUHU216HW,2013-10-17 21:01:00,
2013-10-17 16:06:00,71.6,50.2,29.89,SSE,158,0.4,4.0,47,0.00,,,0.00,WUHU216HW,2013-10-17 21:06:00,
2013-10-17 16:11:00,71.6,50.2,29.89,South,180,1.1,2.2,47,0.00,,,0.00,WUHU216HW,2013-10-17 21:11:00,
2013-10-17 16:16:00,71.5,50.0,29.89,SW,225,0.4,2.2,47,0.00,,,0.00,WUHU216HW,2013-10-17 21:16:00,
2013-10-17 16:21:00,71.5,50.0,29.89,WSW,248,2.2,2.2,47,0.00,,,0.00,WUHU216HW,2013-10-17 21:21:00,
2013-10-17 16:26:00,71.5,49.5,29.89,SW,225,2.2,2.5,46,0.00,,,0.00,WUHU216HW,2013-10-17 21:26:00,
2013-10-17 16:31:00,71.6,50.2,29.89,SW,225,0.7,2.5,47,0.00,,,0.00,WUHU216HW,2013-10-17 21:31:00,
2013-10-17 16:36:00,71.6,49.7,29.88,South,180,2.5,2.5,46,0.00,,,0.00,WUHU216HW,2013-10-17 21:36:00,
2013-10-17 16:41:00,71.6,49.7,29.88,WSW,248,1.8,2.5,46,0.00,,,0.00,WUHU216HW,2013-10-17 21:41:00,
2013-10-17 16:46:00,71.6,49.7,29.88,WSW,248,1.6,2.5,46,0.00,,,0.00,WUHU216HW,2013-10-17 21:46:00,
2013-10-17 16:51:00,71.6,49.7,29.88,WSW,248,2.7,3.4,46,0.00,,,0.00,WUHU216HW,2013-10-17 21:51:00,
2013-10-17 16:56:00,71.6,49.7,29.88,SW,225,1.1,3.4,46,0.00,,,0.00,WUHU216HW,2013-10-17 21:56:00,
2013-10-17 17:01:00,71.6,49.7,29.87,SSW,203,0.4,2.0,46,0.00,,,0.00,WUHU216HW,2013-10-17 22:01:00,
2013-10-17 17:06:00,71.5,49.5,29.87,SW,225,1.3,2.0,46,0.00,,,0.00,WUHU216HW,2013-10-17 22:06:00,
2013-10-17 17:11:00,71.5,49.5,29.87,SW,225,0.4,1.8,46,0.00,,,0.00,WUHU216HW,2013-10-17 22:11:00,
2013-10-17 17:16:00,71.5,49.5,29.87,SW,225,3.4,3.4,46,0.00,,,0.00,WUHU216HW,2013-10-17 22:16:00,
2013-10-17 17:21:00,71.3,49.3,29.87,WNW,293,0.2,3.4,46,0.00,,,0.00,WUHU216HW,2013-10-17 22:21:00,
2013-10-17 17:26:00,71.3,49.3,29.87,SW,225,1.6,3.4,46,0.00,,,0.00,WUHU216HW,2013-10-17 22:26:00,
2013-10-17 17:31:00,71.1,49.1,29.87,SSW,203,0.4,1.6,46,0.00,,,0.00,WUHU216HW,2013-10-17 22:31:00,
2013-10-17 17:36:00,70.9,49.0,29.87,SSW,203,1.1,1.1,46,0.00,,,0.00,WUHU216HW,2013-10-17 22:36:00,
2013-10-17 17:41:00,70.9,49.0,29.87,SSW,203,0.7,1.1,46,0.00,,,0.00,WUHU216HW,2013-10-17 22:41:00,
2013-10-17 17:46:00,70.7,48.9,29.87,South,180,1.8,3.6,46,0.00,,,0.00,WUHU216HW,2013-10-17 22:46:00,
2013-10-17 17:51:00,70.6,48.7,29.87,SSW,203,0.2,3.6,46,0.00,,,0.00,WUHU216HW,2013-10-17 22:51:00,
2013-10-17 17:56:00,70.6,48.7,29.87,SW,225,1.3,1.8,46,0.00,,,0.00,WUHU216HW,2013-10-17 22:56:00,
2013-10-17 18:01:00,70.4,48.5,29.87,SSW,203,2.2,4.0,46,0.00,,,0.00,WUHU216HW,2013-10-17 23:01:00,
2013-10-17 18:06:00,70.2,48.3,29.86,SSW,203,0.4,4.0,46,0.00,,,0.00,WUHU216HW,2013-10-17 23:06:00,
2013-10-17 18:11:00,70.2,48.3,29.86,SE,135,0.4,1.1,46,0.00,,,0.00,WUHU216HW,2013-10-17 23:11:00,
2013-10-17 18:16:00,70.0,48.2,29.86,SSW,203,0.0,3.4,46,0.00,,,0.00,WUHU216HW,2013-10-17 23:16:00,
2013-10-17 18:21:00,69.8,48.1,29.86,South,180,0.7,3.4,46,0.00,,,0.00,WUHU216HW,2013-10-17 23:21:00,
2013-10-17 18:26:00,69.8,48.1,29.86,SSW,203,0.0,2.7,46,0.00,,,0.00,WUHU216HW,2013-10-17 23:26:00,
2013-10-17 18:31:00,69.7,48.4,29.86,SSW,203,0.0,1.8,47,0.00,,,0.00,WUHU216HW,2013-10-17 23:31:00,
2013-10-17 18:36:00,69.3,48.2,29.86,SSW,203,0.0,0.0,47,0.00,,,0.00,WUHU216HW,2013-10-17 23:36:00,
2013-10-17 18:41:00,69.1,48.0,29.86,SSW,203,0.0,0.0,47,0.00,,,0.00,WUHU216HW,2013-10-17 23:41:00,
2013-10-17 18:46:00,68.8,47.6,29.86,SSW,203,0.0,0.0,47,0.00,,,0.00,WUHU216HW,2013-10-17 23:46:00,
2013-10-17 18:51:00,68.4,47.4,29.87,SSW,203,0.0,0.0,47,0.00,,,0.00,WUHU216HW,2013-10-17 23:51:00,
2013-10-17 18:56:00,68.0,47.0,29.86,SSW,203,0.0,0.0,47,0.00,,,0.00,WUHU216HW,2013-10-17 23:56:00,
2013-10-17 19:01:00,67.7,47.3,29.86,SSW,203,0.0,0.0,48,0.00,,,0.00,WUHU216HW,2013-10-18 00:01:00,
2013-10-17 19:06:00,67.3,47.0,29.86,SSW,203,0.0,0.0,48,0.00,,,0.00,WUHU216HW,2013-10-18 00:06:00,
2013-10-17 19:11:00,67.1,47.3,29.86,SSW,203,0.0,0.0,49,0.00,,,0.00,WUHU216HW,2013-10-18 00:11:00,
2013-10-17 19:16:00,66.8,47.1,29.86,SSW,203,0.0,0.0,49,0.00,,,0.00,WUHU216HW,2013-10-18 00:16:00,
2013-10-17 19:21:00,66.6,47.5,29.87,SSW,203,0.0,0.0,50,0.00,,,0.00,WUHU216HW,2013-10-18 00:21:00,
2013-10-17 19:26:00,66.2,47.2,29.87,SSW,203,0.0,0.0,50,0.00,,,0.00,WUHU216HW,2013-10-18 00:26:00,
2013-10-17 19:31:00,66.1,47.0,29.87,SSW,203,0.0,0.0,50,0.00,,,0.00,WUHU216HW,2013-10-18 00:31:00,
2013-10-17 19:36:00,65.7,47.1,29.87,SSW,203,0.0,0.0,51,0.00,,,0.00,WUHU216HW,2013-10-18 00:36:00,
2013-10-17 19:41:00,65.5,46.9,29.87,SSW,203,0.0,0.0,51,0.00,,,0.00,WUHU216HW,2013-10-18 00:41:00,
2013-10-17 19:46:00,65.5,46.9,29.87,WSW,248,0.0,0.0,51,0.00,,,0.00,WUHU216HW,2013-10-18 00:46:00,
2013-10-17 19:51:00,65.3,47.3,29.87,WSW,248,0.0,0.2,52,0.00,,,0.00,WUHU216HW,2013-10-18 00:51:00,
2013-10-17 19:56:00,65.2,47.1,29.87,WSW,248,0.0,0.2,52,0.00,,,0.00,WUHU216HW,2013-10-18 00:56:00,
2013-10-17 20:01:00,65.2,47.5,29.87,WSW,248,0.0,0.2,53,0.00,,,0.00,WUHU216HW,2013-10-18 01:01:00,
2013-10-17 20:06:00,65.0,47.3,29.87,WSW,248,0.0,0.2,53,0.00,,,0.00,WUHU216HW,2013-10-18 01:06:00,
2013-10-17 20:11:00,64.8,47.7,29.87,WSW,248,0.0,0.0,54,0.00,,,0.00,WUHU216HW,2013-10-18 01:11:00,
2013-10-17 20:16:00,64.8,47.7,29.87,WSW,248,0.0,0.0,54,0.00,,,0.00,WUHU216HW,2013-10-18 01:16:00,
2013-10-17 20:21:00,64.6,47.5,29.87,WSW,248,0.0,0.0,54,0.00,,,0.00,WUHU216HW,2013-10-18 01:21:00,
2013-10-17 20:26:00,64.4,47.4,29.87,WSW,248,0.0,0.0,54,0.00,,,0.00,WUHU216HW,2013-10-18 01:26:00,
2013-10-17 20:31:00,64.4,47.8,29.87,WSW,248,0.0,0.0,55,0.00,,,0.00,WUHU216HW,2013-10-18 01:31:00,
2013-10-17 20:36:00,64.3,47.6,29.87,WSW,248,0.0,0.0,55,0.00,,,0.00,WUHU216HW,2013-10-18 01:36:00,
2013-10-17 20:41:00,64.1,47.4,29.88,WSW,248,0.0,0.0,55,0.00,,,0.00,WUHU216HW,2013-10-18 01:41:00,
2013-10-17 20:46:00,64.1,47.4,29.88,WSW,248,0.0,0.0,55,0.00,,,0.00,WUHU216HW,2013-10-18 01:46:00,
2013-10-17 20:51:00,63.9,47.8,29.88,WSW,248,0.0,0.0,56,0.00,,,0.00,WUHU216HW,2013-10-18 01:51:00,
2013-10-17 20:56:00,63.7,47.6,29.88,WSW,248,0.0,0.0,56,0.00,,,0.00,WUHU216HW,2013-10-18 01:56:00,
2013-10-17 21:01:00,63.4,47.4,29.89,WSW,248,0.0,0.0,56,0.00,,,0.00,WUHU216HW,2013-10-18 02:01:00,
2013-10-17 21:06:00,63.2,47.6,29.89,WSW,248,0.0,0.0,57,0.00,,,0.00,WUHU216HW,2013-10-18 02:06:00,
2013-10-17 21:11:00,63.0,47.4,29.89,WSW,248,0.0,0.0,57,0.00,,,0.00,WUHU216HW,2013-10-18 02:11:00,
2013-10-17 21:16:00,62.8,47.8,29.89,WSW,248,0.0,0.0,58,0.00,,,0.00,WUHU216HW,2013-10-18 02:16:00,
2013-10-17 21:21:00,62.6,47.6,29.89,WSW,248,0.0,0.0,58,0.00,,,0.00,WUHU216HW,2013-10-18 02:21:00,
2013-10-17 21:26:00,62.5,47.4,29.89,WSW,248,0.0,0.0,58,0.00,,,0.00,WUHU216HW,2013-10-18 02:26:00,
2013-10-17 21:31:00,62.5,48.0,29.89,SW,225,0.0,0.0,59,0.00,,,0.00,WUHU216HW,2013-10-18 02:31:00,
2013-10-17 21:36:00,62.5,48.0,29.89,SW,225,0.0,0.0,59,0.00,,,0.00,WUHU216HW,2013-10-18 02:36:00,
2013-10-17 21:41:00,62.5,48.0,29.89,SW,225,0.0,0.0,59,0.00,,,0.00,WUHU216HW,2013-10-18 02:41:00,
2013-10-17 21:46:00,62.5,48.4,29.89,SW,225,0.0,0.0,60,0.00,,,0.00,WUHU216HW,2013-10-18 02:46:00,
2013-10-17 21:51:00,62.3,48.2,29.89,SW,225,0.0,0.0,60,0.00,,,0.00,WUHU216HW,2013-10-18 02:51:00,
2013-10-17 21:56:00,62.1,48.2,29.89,SW,225,0.0,0.0,60,0.00,,,0.00,WUHU216HW,2013-10-18 02:56:00,
2013-10-17 22:01:00,62.1,48.2,29.89,SW,225,0.0,0.0,60,0.00,,,0.00,WUHU216HW,2013-10-18 03:01:00,
2013-10-17 22:06:00,61.9,48.3,29.89,SSW,203,0.0,0.0,61,0.00,,,0.00,WUHU216HW,2013-10-18 03:06:00,
2013-10-17 22:11:00,61.9,48.3,29.89,SSW,203,0.0,0.0,61,0.00,,,0.00,WUHU216HW,2013-10-18 03:11:00,
2013-10-17 22:16:00,61.9,48.3,29.89,SSW,203,0.0,0.0,61,0.00,,,0.00,WUHU216HW,2013-10-18 03:16:00,
2013-10-17 22:21:00,61.9,48.3,29.89,SSW,203,0.0,0.0,61,0.00,,,0.00,WUHU216HW,2013-10-18 03:21:00,
2013-10-17 22:26:00,61.6,48.4,29.89,SSW,203,0.0,0.0,62,0.00,,,0.00,WUHU216HW,2013-10-18 03:26:00,
2013-10-17 22:31:00,61.6,48.4,29.89,SSW,203,0.0,0.0,62,0.00,,,0.00,WUHU216HW,2013-10-18 03:31:00,
2013-10-17 22:36:00,61.6,48.4,29.89,SSW,203,0.0,0.0,62,0.00,,,0.00,WUHU216HW,2013-10-18 03:36:00,
2013-10-17 22:41:00,61.2,48.2,29.89,SSW,203,0.0,0.0,62,0.00,,,0.00,WUHU216HW,2013-10-18 03:41:00,
2013-10-17 22:46:00,61.0,48.4,29.89,SSW,203,0.0,0.0,63,0.00,,,0.00,WUHU216HW,2013-10-18 03:46:00,
2013-10-17 22:51:00,60.7,48.1,29.89,SSW,203,0.0,0.0,63,0.00,,,0.00,WUHU216HW,2013-10-18 03:51:00,
2013-10-17 22:56:00,60.5,48.2,29.89,SW,225,0.0,0.0,64,0.00,,,0.00,WUHU216HW,2013-10-18 03:56:00,
2013-10-17 23:01:00,60.3,48.1,29.89,SW,225,0.0,0.0,64,0.00,,,0.00,WUHU216HW,2013-10-18 04:01:00,
2013-10-17 23:06:00,60.1,48.3,29.88,SSW,203,0.0,0.0,65,0.00,,,0.00,WUHU216HW,2013-10-18 04:06:00,
2013-10-17 23:11:00,59.9,47.7,29.88,SSW,203,0.0,0.0,64,0.00,,,0.00,WUHU216HW,2013-10-18 04:11:00,
2013-10-17 23:16:00,59.9,47.7,29.88,SSW,203,0.0,0.0,64,0.00,,,0.00,WUHU216HW,2013-10-18 04:16:00,
2013-10-17 23:21:00,59.8,48.0,29.88,SSW,203,0.0,0.0,65,0.00,,,0.00,WUHU216HW,2013-10-18 04:21:00,
2013-10-17 23:26:00,59.8,48.0,29.88,SSW,203,0.0,0.0,65,0.00,,,0.00,WUHU216HW,2013-10-18 04:26:00,
2013-10-17 23:31:00,59.6,47.8,29.88,SSW,203,0.0,0.0,65,0.00,,,0.00,WUHU216HW,2013-10-18 04:31:00,
2013-10-17 23:36:00,59.6,47.8,29.88,SW,225,0.0,0.0,65,0.00,,,0.00,WUHU216HW,2013-10-18 04:36:00,
2013-10-17 23:41:00,59.6,47.8,29.88,SW,225,0.0,0.0,65,0.00,,,0.00,WUHU216HW,2013-10-18 04:41:00,
2013-10-17 23:46:00,59.4,48.1,29.88,SW,225,0.0,0.0,66,0.00,,,0.00,WUHU216HW,2013-10-18 04:46:00,
2013-10-17 23:51:00,59.4,48.1,29.88,SW,225,0.0,0.0,66,0.00,,,0.00,WUHU216HW,2013-10-18 04:51:00,
2013-10-17 23:56:00,59.0,47.7,29.88,SW,225,0.0,0.0,66,0.00,,,0.00,WUHU216HW,2013-10-18 04:56:00,